Weather History for PAGM - January, 2014

Change the Weather History Date:

Monday, January 20, 2014

  Actual Average Record
Temperature  
Mean Temperature 8 °F -  
Max Temperature 12 °F 7 °F 33 °F (2008)
Min Temperature 3 °F 0 °F -14 °F (2006)
Degree Days  
Heating Degree Days 58    
Moisture  
Dew Point 5 °F    
Average Humidity 89    
Maximum Humidity 100    
Minimum Humidity 85    
Precipitation  
Precipitation 7.93 in - - ()
Sea Level Pressure  
Sea Level Pressure 29.38 in    
Wind  
Wind Speed 36 mph (NE)    
Max Wind Speed 43 mph    
Max Gust Speed 53 mph    
Visibility 2 miles    
Events      
Averages and records for this station are not official NWS values.
T = Trace of Precipitation, MM = Missing Value Source: NWS Daily Summary

Daily Weather History Graph

Daily Weather History Graph

Search for Another Location

Airport or City:

Trip Planner

Search our weather history database for the weather conditions in past years. The results will help you decide how hot, cold, wet, or windy it might be!

Date:

Astronomy

Jan. 20, 2014 Rise Set
Actual Time 11:36 AM AKST 5:40 PM AKST
Civil Twilight 10:34 AM AKST 6:42 PM AKST
Nautical Twilight 9:33 AM AKST 7:43 PM AKST
Astronomical Twilight 8:36 AM AKST 8:40 PM AKST
Moon No Moon Rise 11:51 AM AKST (1/20)
Length of Visible Light 8h 07m
Length of Day
6h 03m
Waning Gibbous, 81% of the Moon is Illuminated
Jan 20
Waning Gibbous
Jan 23
Last Quarter
Jan 30
New
Feb 6
First Quarter
Feb 14
Full

Hourly Weather History & Observations

Time (AKST) Temp. Windchill Dew Point Humidity Pressure Visibility Wind Dir Wind Speed Gust Speed Precip Events Conditions
12:16 AM 3.2 °F -22.5 °F 1.4 °F 92% 29.63 in 2.0 mi NE 33.4 mph - 0.36 in   Unknown
12:36 AM 3.2 °F -23.5 °F 1.4 °F 92% 29.63 in 2.5 mi NE 36.8 mph - 0.37 in   Unknown
12:56 AM 3.2 °F -22.5 °F -0.4 °F 85% 29.63 in 2.0 mi NE 33.4 mph - 0.38 in   Unknown
1:16 AM - - - N/A% 29.62 in 3.0 mi NE 36.8 mph 40.3 mph N/A   Unknown
1:36 AM 3.2 °F -23.5 °F 1.4 °F 92% 29.63 in 3.0 mi NE 36.8 mph - N/A   Unknown
1:56 AM 3.2 °F -23.2 °F 1.4 °F 92% 29.62 in 4.0 mi NNE 35.7 mph - 0.47 in   Unknown
2:16 AM 3.2 °F -23.2 °F -0.4 °F 85% 29.62 in 3.0 mi NNE 35.7 mph 40.3 mph 0.39 in   Unknown
2:36 AM 3.2 °F -22.9 °F 1.4 °F 92% 29.62 in 3.0 mi NE 34.5 mph - 0.60 in   Unknown
2:56 AM 3.2 °F -23.2 °F 1.4 °F 92% 29.60 in 4.0 mi NE 35.7 mph 42.6 mph 0.64 in   Unknown
3:16 AM 3.2 °F -22.5 °F 1.4 °F 92% 29.60 in 3.0 mi NE 33.4 mph 42.6 mph 0.13 in   Unknown
3:36 AM 3.2 °F -22.9 °F 1.4 °F 92% 29.59 in 5.0 mi NE 34.5 mph 41.4 mph 0.22 in   Unknown
3:56 AM 5.0 °F -20.4 °F 1.4 °F 85% 29.58 in 3.0 mi NNE 34.5 mph 43.7 mph 0.64 in   Unknown
4:16 AM 5.0 °F -20.1 °F 1.4 °F 85% 29.57 in 2.5 mi NNE 33.4 mph 41.4 mph 0.07 in   Unknown
4:36 AM 5.0 °F -20.1 °F 1.4 °F 85% 29.57 in 3.0 mi NE 33.4 mph 43.7 mph 0.27 in   Unknown
4:56 AM 5.0 °F -21.3 °F 1.4 °F 85% 29.54 in 3.0 mi NNE 38.0 mph 41.4 mph 0.32 in   Unknown
5:16 AM - - - N/A% 29.53 in 3.0 mi NE 38.0 mph 42.6 mph 0.14 in   Unknown
5:36 AM - - - N/A% 29.53 in 3.0 mi NE 38.0 mph 44.9 mph 0.16 in   Unknown
5:56 AM - - - N/A% 29.52 in 2.0 mi NE 38.0 mph 47.2 mph 0.20 in   Unknown
6:16 AM - - - N/A% 29.51 in 2.0 mi NE 38.0 mph 43.7 mph 0.06 in   Unknown
6:36 AM - - - N/A% 29.49 in 2.5 mi NE 42.6 mph 50.6 mph 0.11 in   Unknown
6:56 AM - - - N/A% 29.48 in 1.8 mi NE 41.4 mph 47.2 mph 0.12 in   Unknown
7:16 AM - - - N/A% 29.47 in 2.0 mi NE 36.8 mph 44.9 mph N/A   Unknown
7:36 AM - - - N/A% 29.48 in 1.2 mi NE 36.8 mph 48.3 mph 0.03 in   Unknown
7:56 AM - - - N/A% 29.47 in 0.8 mi NE 41.4 mph 47.2 mph 0.03 in   Unknown
8:16 AM - - - N/A% 29.45 in 0.8 mi NNE 40.3 mph 44.9 mph N/A   Unknown
8:36 AM 6.8 °F -19.3 °F 3.2 °F 85% 29.45 in 0.8 mi NE 40.3 mph 48.3 mph N/A   Unknown
8:56 AM - - - N/A% 29.44 in 1.2 mi NE 38.0 mph 46.0 mph N/A   Unknown
9:16 AM - - - N/A% 29.43 in 1.0 mi NE 41.4 mph 48.3 mph 0.01 in   Unknown
9:36 AM - - - N/A% 29.43 in 0.5 mi NE 39.1 mph 44.9 mph 0.03 in   Unknown
9:56 AM - - - N/A% 29.41 in 0.5 mi NE 39.1 mph 48.3 mph 0.08 in   Unknown
10:16 AM - - - N/A% 29.39 in 0.8 mi NE 41.4 mph 52.9 mph N/A   Unknown
10:36 AM - - - N/A% 29.38 in 1.5 mi NNE 41.4 mph 50.6 mph 0.01 in   Unknown
10:56 AM - - - N/A% 29.36 in 1.2 mi NE 42.6 mph 49.5 mph 0.02 in   Unknown
11:16 AM - - - N/A% 29.35 in 1.2 mi NE 39.1 mph 50.6 mph N/A   Unknown
11:36 AM - - - N/A% 29.35 in 0.8 mi NE 41.4 mph 49.5 mph N/A   Unknown
11:56 AM - - - N/A% 29.34 in 1.0 mi NE 41.4 mph 49.5 mph 0.03 in   Unknown
12:16 PM - - - N/A% 29.34 in 0.8 mi NE 40.3 mph 52.9 mph N/A   Unknown
12:36 PM - - - N/A% 29.33 in 0.8 mi NE 41.4 mph 48.3 mph N/A   Unknown
12:56 PM - - - N/A% 29.33 in 0.5 mi NE 40.3 mph 48.3 mph N/A   Unknown
1:16 PM - - - N/A% 29.33 in 1.0 mi NE 38.0 mph 47.2 mph N/A   Unknown
1:36 PM 6.8 °F -17.6 °F 3.2 °F 85% 29.33 in 1.0 mi NNE 33.4 mph 42.6 mph N/A   Unknown
1:56 PM 6.8 °F -18.5 °F 6.8 °F 100% 29.32 in 1.2 mi NNE 36.8 mph 46.0 mph N/A   Unknown
2:16 PM - - - N/A% 29.30 in 0.8 mi NE 32.2 mph 43.7 mph 0.01 in   Unknown
2:36 PM - - - N/A% 29.28 in 0.8 mi NE 35.7 mph 44.9 mph 0.09 in   Unknown
2:56 PM 8.6 °F -16.0 °F 5.0 °F 85% 29.28 in 0.5 mi NE 36.8 mph 43.7 mph 0.09 in   Unknown
3:16 PM - - - N/A% 29.27 in 0.2 mi NE 38.0 mph 46.0 mph 0.04 in   Unknown
3:36 PM 8.6 °F -15.1 °F 5.0 °F 85% 29.27 in 0.5 mi NNE 33.4 mph 46.0 mph 0.29 in   Unknown
3:56 PM 8.6 °F -15.4 °F 6.8 °F 92% 29.27 in 0.8 mi NE 34.5 mph 43.7 mph 0.30 in   Unknown
4:16 PM 8.6 °F -15.1 °F 6.8 °F 92% 29.26 in 1.0 mi NNE 33.4 mph 44.9 mph 0.14 in   Unknown
4:36 PM 8.6 °F -14.8 °F 5.0 °F 85% 29.26 in 0.8 mi NNE 32.2 mph 42.6 mph 0.25 in   Unknown
4:56 PM 8.6 °F -15.7 °F 6.8 °F 92% 29.25 in 0.8 mi NNE 35.7 mph 42.6 mph 0.39 in   Unknown
5:16 PM 8.6 °F -14.8 °F 6.8 °F 92% 29.25 in 1.0 mi NNE 32.2 mph 39.1 mph 0.20 in   Unknown
5:36 PM 8.6 °F -15.1 °F 6.8 °F 92% 29.24 in 1.0 mi NNE 33.4 mph 40.3 mph 0.34 in   Unknown
5:56 PM 8.6 °F -14.8 °F 6.8 °F 92% 29.23 in 1.0 mi NNE 32.2 mph 38.0 mph 0.36 in   Unknown
6:16 PM 8.6 °F -14.5 °F 6.8 °F 92% 29.24 in 0.8 mi NNE 31.1 mph 42.6 mph 0.07 in   Unknown
6:36 PM 8.6 °F -14.1 °F 6.8 °F 92% 29.24 in 1.0 mi NNE 29.9 mph 35.7 mph 0.23 in   Unknown
6:56 PM 10.4 °F -11.7 °F 6.8 °F 85% 29.24 in 1.2 mi NNE 29.9 mph 38.0 mph 0.31 in   Unknown
7:16 PM 10.4 °F -11.0 °F 6.8 °F 85% 29.23 in 1.5 mi NNE 27.6 mph - 0.13 in   Unknown
7:36 PM 10.4 °F -12.0 °F 6.8 °F 85% 29.23 in 2.0 mi NNE 31.1 mph 35.7 mph 0.26 in   Unknown
7:56 PM 10.4 °F -11.4 °F 6.8 °F 85% 29.23 in 1.8 mi NNE 28.8 mph 36.8 mph 0.54 in   Unknown
8:16 PM 10.4 °F -10.3 °F 8.6 °F 92% 29.23 in 2.5 mi NNE 25.3 mph 32.2 mph 0.20 in   Unknown
8:36 PM 10.4 °F -11.4 °F 8.6 °F 92% 29.23 in 1.8 mi NE 28.8 mph 35.7 mph 0.55 in   Unknown
8:56 PM 10.4 °F -11.4 °F 8.6 °F 92% 29.22 in 1.2 mi NNE 28.8 mph 35.7 mph 0.93 in   Unknown
9:16 PM 10.4 °F -11.4 °F 8.6 °F 92% 29.23 in 1.2 mi NNE 28.8 mph 35.7 mph 0.25 in   Unknown
9:36 PM 12.2 °F -9.9 °F 10.4 °F 92% 29.22 in 1.2 mi NE 32.2 mph 39.1 mph 0.45 in   Unknown
9:56 PM 10.4 °F -12.0 °F 8.6 °F 92% 29.23 in 1.5 mi NNE 31.1 mph - 0.63 in   Unknown
10:16 PM 10.4 °F -12.0 °F 8.6 °F 92% 29.23 in 1.8 mi NNE 31.1 mph 36.8 mph 0.35 in   Unknown
10:36 PM 10.4 °F -12.0 °F 8.6 °F 92% 29.22 in 2.5 mi NE 31.1 mph 39.1 mph 0.68 in   Unknown
10:56 PM 10.4 °F -11.4 °F 8.6 °F 92% 29.23 in 1.5 mi NE 28.8 mph 41.4 mph 0.89 in   Unknown
11:16 PM 12.2 °F -10.2 °F 8.6 °F 85% 29.22 in 1.8 mi NE 33.4 mph 39.1 mph 0.10 in   Unknown
11:36 PM 12.2 °F -9.6 °F 8.6 °F 85% 29.23 in 2.0 mi NE 31.1 mph 38.0 mph 0.35 in   Unknown
11:56 PM 12.2 °F -9.6 °F 10.4 °F 92% 29.23 in 2.5 mi NE 31.1 mph 39.1 mph 0.56 in   Unknown